Flag for Germany Weather past 2 weeks in Wiesbaden, Hesse, Germany

Now
50 °F

Partly sunny.


Feels Like: 49 °F
Forecast: 43 / 57 °F
Wind: 3 mph from East

Location: Wiesbaden Airport

Current Time: Oct 23, 2014 at 7:17:51 PM

Latest Report: Oct 23, 2014 at 7:00 PM


Visibility: N/A

Pressure: 30.24 "Hg

Humidity: 88%

Dew point: 46 °F

Location of WiesbadenLocation

Historic Weather in Wiesbaden — Graph

°F

Wiesbaden temperature yesterday

Maximum temperature yesterday: 52 °F (at 3:55 PM)
Minimum temperature yesterday: 44 °F (at 5:58 AM)
Average temperature yesterday: 47 °F

Past Weeks' High & Low Weather Summary

 TemperatureHumidityPressure
High72 °F (Oct 19, 3:58 PM)100% (Oct 8, 9:58 PM)30.28 "Hg (Oct 8, 9:58 PM)
Low44 °F (Oct 22, 5:58 AM)59% (Oct 15, 3:58 PM)29.58 "Hg (Oct 21, 5:58 PM)
Average56 °F90%29.93 "Hg
* Reported Oct 8 5:58 PM — Oct 23 5:58 PM, Wiesbaden, Weather by CustomWeather, © 2014

Note: Actual official high and low records may vary slightly from our data, if they occured in-between our weather recording intervals... More about our weather records

Advertising

Wiesbaden weather history for previous 24 hours

 ConditionsComfort  
Time TempWeatherWind HumidityBarometerVisibility
5:58 PM
Oct 23
54 °FPartly sunny.6 mph77%30.24 "HgN/A
4:58 PM55 °FPartly sunny.3 mph72%30.24 "HgN/A
3:58 PM54 °FBroken clouds.6 mph82%30.25 "HgN/A
2:58 PM54 °FPassing clouds.6 mph78%30.26 "HgN/A
2:01 PM52 °FMore clouds than sun.5 mph82%30.26 "HgN/A
1:58 PM52 °FMostly cloudy.6 mph82%30.27 "HgN/A
12:58 PM52 °FMostly cloudy.6 mph82%30.27 "HgN/A
12:04 PM50 °FMostly cloudy.7 mph88%30.27 "HgN/A
11:58 AM51 °FMore clouds than sun.8 mph84%30.28 "HgN/A
10:58 AM49 °FOvercast.9 mph88%30.27 "HgN/A
9:58 AM48 °FOvercast.7 mph87%30.27 "HgN/A
8:58 AM47 °FOvercast.5 mph92%30.25 "HgN/A
7:58 AM46 °FOvercast.5 mph87%30.24 "HgN/A
6:58 AM47 °FOvercast.6 mph87%30.23 "HgN/A
5:58 AM48 °FOvercast.6 mph85%30.22 "HgN/A
4:58 AM48 °FOvercast.5 mph82%30.21 "HgN/A
3:58 AM48 °FOvercast.7 mph83%30.20 "HgN/A
2:58 AM48 °FOvercast.8 mph82%30.19 "HgN/A
1:58 AM48 °FOvercast.10 mph80%30.17 "HgN/A
12:58 AM48 °FPassing clouds.6 mph76%30.17 "HgN/A
11:58 PM
Oct 22
48 °FPassing clouds.13 mph82%30.16 "HgN/A
10:58 PM48 °FPassing clouds.7 mph76%30.15 "HgN/A
9:58 PM48 °FPassing clouds.14 mph82%30.13 "HgN/A
8:58 PM49 °FClear.20 mph77%30.09 "HgN/A
7:58 PM48 °FPassing clouds.16 mph80%30.07 "HgN/A
7:03 PM48 °FBroken clouds.16 mph82%30.05 "HgN/A
Weather by CustomWeather, © 2014

See weather overviewHow to use our weather pages